Showing default

METEOR M2-3, 57166

Orbit data source: Space-Track

METEOR M2-3, 57166 is a Commonwealth of Independent States-origin payload satellite in SSO that was launched on Tue, 27 Jun 2023 UTC via a SOYUZ-2-1B launch vehicle from the Vostochny Cosmodrome (VOSTO). Payload-class satellites include a variety of spacecraft equipped with specific instruments for various scientific and technological missions. These include communications satellites like Starlink; space stations such as the ISS; scientific satellites like the Hubble; Earth observation satellites from companies like Planet Labs, Umbra, and HawkEye 360; GPS; miniature CubeSats for education and research; and military/defense satellites.

Loading next visibility...
Identifier
57166, 2023-091A
Orbit
SSO
Country
Flag of CISCIS
Related business
Manufacturer
VNIIEM
Mission
Operational Civil Weather
Bus & Motor
RESURS-O, Unknown motor
Mass
2,879 kg wet, ~2,600 kg dry
Launch date (UTC)
2023-06-27 (3 years ago)
Launch vehicle
SOYUZ-2-1B
Launch site
Vostochny Cosmodrome (VOSTO)
Object type
Payload
Rocket body
Debris
Shape & HBR
Cyl + 2 Pan, 7.0 m
Radar Cross Section
26.744 m², Large (>1 m²)

Expand to show TLE details & history
Last TLE update: 8 hours ago

TLE from 8 hours ago
0 METEOR M2-3
1 57166U 23091A   26256.90978380 -.00000017  00000-0  11456-4 0  9995
2 57166  98.5997 310.0337 0002787 272.6684  87.4176 14.24052460167140
Epoch: 2026-09-13T21:50Z
TLE epoch observation values (Epoch: 2026-09-13T21:50:05.320Z)
Latitude
-0.00002°
Longitude
-10.38613°
Altitude
814.514 km
Speed
7.446 km/s
True Right ascension
20h 40m 08s
True Declination
0° 00' 00"
Sunlit
Object was in full shadow at epoch
Visualization orbit readout
Latitude
Unknown
Longitude
Unknown
Altitude
Unknown
Speed
Unknown
Apparent Right ascension
Unknown
Apparent Declination
Unknown
Sunlit
N/A
Visualization observer readout
Local Sidereal Time
21:57:10
Azimuth
Unknown
Elevation
Unknown
Doppler factor
Unknown
Orbital elements
Apogee altitude
810.831 km
Perigee altitude
806.825 km
Semi-major axis
7,186.965 km
Eccentricity
0.00028
Inclination
98.5997°
RAAN
310.0337°
Arg. of periapsis
272.6684°
True anomaly
87.4495°
Mean anomaly
87.4176°
Eccentric anomaly
87.43355°
Mean motion
3.56225 °/min
Orbital period
101.06 mins
BSTAR
0.000011456
Loading maneuver chart data...
Computing Atmospheric mass density...
Loading historical data...
Loading historical data...
Loading historical data...
Loading historical data...
Loading historical data...
Loading historical data...
Loading historical data...

Documentation

Showing up to 5 results
|